Isis 2

operational
NORAD ID: 5104 Int'l Des: 1971-024 Owner: CRC Country: CA
LEOCIRCULARPOLAR

关于 Isis 2

正在加载描述...

实时位置

正在加载3D地球...

即将过境

高度历史

Altitude vs Time

uPlot chart will show altitude changes over time

两行轨道根数

1 5104U 71024A 26063.29391193 .00000034 00000-0 11942-3 0 9995
2 5104 88.1745 333.0996 0044315 16.3339 101.0474 12.67884041541457
Epoch: Mar 4, 2026 • Age: 15 hours

当前状态

高度 1438.4 km
速度 7.13 km/s
星下点 -59.09°S, 124.62°E
类型 other

大型星座

Loading constellations...